{"data":{"norad_id":65850,"intl_designator":"2025-221AD","name":"STARLINK-35252","alt_names":[],"object_type":"PAYLOAD","status":"ACTIVE","operator":null,"country":"US","launch_date":"2025-09-29","launch_site_code":"AFWTR","launch_vehicle":null,"mission":null,"orbit_class":"UNKNOWN","rcs_meters":null,"size_class":null,"mass_kg":null,"dimensions":null,"purposes":["comms"],"wikipedia_slug":null,"has_3d_model":false,"image_url":null,"decayed_at":null,"tle_current":{"epoch":"2026-09-20T08:59:30.507360Z","epoch_age_seconds":117058,"freshness":"FRESH","line1":"1 65850U 25221AD  26263.37465865  .00011247  00000+0  34367-3 0  9999","line2":"2 65850  53.1576 262.4151 0001600  86.3459 273.7726 15.34385757 55918","mean_motion":15.34385757,"eccentricity":0.00016,"inclination_deg":53.1576,"raan_deg":262.4151,"arg_perigee_deg":86.3459,"mean_anomaly_deg":273.7726,"bstar":0.00034367,"rev_number":5591,"period_min":93.848629227076,"perigee_km":461.65103252035,"apogee_km":463.84011494394,"semimajor_km":6840.8825737321,"source":"CELESTRAK","updated_at":"2026-09-21T09:00:35.724702Z"}}}